CW6102 Weather Reports


time (UTC)temp
F
wind
direction
speed
knots
gust
knots
rain 1hr
in
rain 24hr
in
rain mn
in
humidity
%
barometer
mb
20260906023705 54 255 3.5 7.8 0.00 0.02 0.00 86 1023.5
20260906023212 54 323 3.5 7.0 0.00 0.02 0.00 86 1023.7
20260906023205 54 257 4.3 7.0 0.00 0.02 0.00 86 1023.5
20260906022704 54 264 3.5 10.4 0.00 0.02 0.00 86 1023.5
20260906022212 54 311 2.6 6.1 0.00 0.02 0.00 86 1023.7
20260906022204 54 289 2.6 6.1 0.00 0.02 0.00 86 1023.5
20260906021212 54 275 3.5 5.2 0.00 0.02 0.00 85 1023.6
20260906021204 54 299 2.6 5.2 0.00 0.02 0.00 85 1023.4
20260906015704 54 255 2.6 6.1 0.00 0.02 0.00 85 1023.3
20260906015212 54 279 2.6 5.2 0.00 0.02 0.00 85 1023.5
20260906015205 54 279 2.6 5.2 0.00 0.02 0.00 85 1023.3
20260906014212 54 276 2.6 5.2 0.00 0.02 0.00 85 1023.4
20260906014205 54 279 2.6 5.2 0.00 0.02 0.00 85 1023.2
20260906013705 54 293 1.7 5.2 0.00 0.02 0.00 85 1023.2
20260906013212 54 235 2.6 6.1 0.00 0.02 0.00 85 1023.4
20260906013205 55 263 1.7 6.1 0.00 0.02 0.00 84 1023.1
20260906012705 55 273 1.7 5.2 0.00 0.02 0.00 84 1023.1
20260906012212 55 248 1.7 6.1 0.00 0.02 0.00 84 1023.3
20260906012205 55 259 1.7 6.1 0.00 0.02 0.00 84 1023.1
20260906011705 55 229 2.6 7.0 0.00 0.02 0.00 84 1023.1
20260906011212 55 240 2.6 6.1 0.00 0.02 0.00 84 1023.2
20260906011204 55 246 2.6 6.1 0.00 0.02 0.00 84 1023.0
20260906010705 55 249 2.6 7.0 0.00 0.02 0.00 84 1023.0
20260906010212 55 213 4.3 7.0 0.00 0.02 0.00 84 1023.2
20260906010204 55 240 4.3 7.0 0.00 0.02 0.00 84 1023.0
20260906005705 55 259 2.6 7.8 0.00 0.02 0.00 84 1022.9
20260906005212 55 220 3.5 7.0 0.00 0.02 0.00 84 1023.1
20260906005204 55 256 4.3 7.0 0.00 0.02 0.00 84 1022.9
20260906004705 55 245 2.6 4.3 0.00 0.02 0.00 84 1022.9
20260906003705 56 277 1.7 4.3 0.00 0.02 0.00 83 1022.9
20260906002705 56 231 2.6 4.3 0.00 0.02 0.00 82 1022.9
20260906002212 56 253 2.6 7.0 0.00 0.02 0.00 82 1023.1
20260906002205 56 243 1.7 5.2 0.00 0.02 0.00 82 1022.9
20260906001704 56 268 2.6 7.0 0.00 0.02 0.00 81 1022.9
20260906001212 56 240 3.5 7.0 0.00 0.02 0.00 81 1023.0
20260906001204 56 238 2.6 7.0 0.00 0.02 0.00 81 1022.8
20260906000704 56 266 4.3 10.4 0.00 0.02 0.00 82 1022.8
20260906000212 56 249 3.5 7.8 0.00 0.02 0.00 82 1022.9
20260906000204 56 258 3.5 7.8 0.00 0.02 0.00 82 1022.7
20260905235212 57 244 2.6 9.6 0.00 0.02 0.00 82 1023.0
20260905235205 57 255 1.7 10.4 0.00 0.02 0.00 82 1022.7
20260905234704 57 257 2.6 6.1 0.00 0.02 0.00 82 1022.7
20260905234212 57 299 1.7 5.2 0.00 0.02 0.00 81 1022.9
20260905234204 57 307 1.7 5.2 0.00 0.02 0.00 81 1022.7
20260905233705 57 252 1.7 5.2 0.00 0.02 0.00 80 1022.7
20260905233212 58 249 2.6 6.1 0.00 0.02 0.00 79 1023.0
20260905233204 57 258 2.6 6.1 0.00 0.02 0.00 79 1022.7
20260905232704 58 309 1.7 5.2 0.00 0.02 0.00 79 1022.6
20260905232212 58 253 3.5 7.0 0.00 0.02 0.00 78 1022.9
20260905232204 58 249 3.5 7.0 0.00 0.02 0.00 78 1022.5
20260905231212 58 253 5.2 10.4 0.00 0.02 0.00 77 1022.7
20260905231204 58 267 5.2 10.4 0.00 0.02 0.00 77 1022.4
20260905230704 58 283 3.5 7.0 0.00 0.02 0.00 78 1022.4
20260905230212 58 15 2.6 15.6 0.00 0.02 0.00 77 1022.5
20260905230204 58 245 2.6 15.6 0.00 0.03 0.00 77 1022.3
20260905225705 58 299 5.2 11.3 0.00 0.03 0.00 78 1022.3
20260905224212 57 311 4.3 7.0 0.00 0.03 0.00 81 1022.4
20260905224204 57 284 4.3 7.0 0.00 0.05 0.00 81 1022.2
20260905223704 57 287 2.6 6.1 0.00 0.08 0.00 81 1022.1
20260905223212 58 257 2.6 11.3 0.00 0.03 0.00 81 1022.3
20260905223204 58 283 3.5 11.3 0.00 0.08 0.00 81 1022.1
20260905222704 58 259 2.6 5.2 0.00 0.08 0.00 80 1022.0
20260905222212 58 243 1.7 4.3 0.00 0.03 0.00 80 1022.2
20260905222204 58 235 2.6 4.3 0.00 0.08 0.00 80 1022.0
20260905221705 58 275 2.6 6.1 0.00 0.08 0.00 80 1022.0
20260905221212 59 231 2.6 8.7 0.00 0.03 0.00 79 1022.2
20260905221204 59 245 2.6 8.7 0.00 0.09 0.00 79 1021.9
20260905220704 59 252 1.7 6.1 0.00 0.10 0.00 78 1021.9
20260905220212 59 262 0.9 5.2 0.00 0.03 0.00 78 1022.2
20260905220204 59 289 1.7 5.2 0.00 0.11 0.00 77 1021.9
20260905215705 59 226 1.7 5.2 0.00 0.11 0.11 77 1021.9
20260905214704 59 286 5.2 10.4 0.00 0.12 0.11 77 1021.8
20260905214212 59 272 4.3 12.2 0.00 0.11 0.11 77 1022.1
20260905214205 59 274 5.2 12.2 0.00 0.13 0.11 77 1021.8
20260905213704 59 279 3.5 7.8 0.00 0.13 0.11 78 1021.7
20260905212704 58 292 4.3 6.1 0.00 0.13 0.11 79 1021.7
20260905212212 58 304 2.6 5.2 0.00 0.11 0.11 79 1021.9
20260905212205 58 269 2.6 5.2 0.00 0.13 0.11 79 1021.6
20260905211704 58 245 1.7 8.7 0.00 0.13 0.11 79 1021.5
20260905211212 58 246 1.7 6.1 0.00 0.11 0.11 80 1021.8
20260905211205 58 241 1.7 6.1 0.00 0.14 0.11 80 1021.5
20260905210704 58 261 1.7 2.6 0.00 0.15 0.11 79 1021.6
20260905210212 58 263 2.6 5.2 0.00 0.11 0.11 79 1021.9
20260905210204 58 263 2.6 5.2 0.00 0.17 0.11 79 1021.6
20260905205212 58 286 2.6 5.2 0.00 0.17 0.11 79 1021.7
20260905205204 58 278 1.7 5.2 0.00 0.19 0.11 79 1021.5
20260905204704 58 244 0.9 5.2 0.00 0.22 0.11 79 1021.6
20260905204212 59 254 1.7 5.2 0.00 0.17 0.11 79 1021.9
20260905204204 59 244 1.7 5.2 0.00 0.24 0.11 78 1021.6
20260905203704 59 288 2.6 4.3 0.00 0.25 0.11 78 1021.6
20260905203212 59 323 3.5 7.0 0.00 0.17 0.11 77 1022.0
20260905203204 59 320 3.5 7.0 0.00 0.27 0.11 77 1021.7
20260905202704 59 316 3.5 5.2 0.00 0.28 0.11 77 1021.4
20260905202212 59 286 1.7 5.2 0.00 0.17 0.11 77 1021.6
20260905202204 59 286 2.6 7.0 0.00 0.29 0.11 76 1021.3
20260905201212 60 325 3.5 6.1 0.00 0.17 0.11 76 1021.7
20260905201204 60 293 3.5 6.1 0.00 0.31 0.11 76 1021.4
20260905200703 60 304 3.5 6.1 0.00 0.33 0.11 75 1021.1
20260905195704 60 293 4.3 10.4 0.00 0.35 0.11 74 1021.0
20260905195212 60 272 4.3 14.8 0.00 0.35 0.11 74 1021.2
20260905195204 60 296 5.2 14.8 0.00 0.38 0.11 74 1020.9
20260905194705 60 270 6.1 11.3 0.00 0.38 0.11 74 1020.8
20260905194212 60 276 4.3 10.4 0.00 0.35 0.11 74 1021.1
20260905194203 60 280 4.3 10.4 0.00 0.38 0.11 74 1020.8
20260905193703 60 321 6.1 11.3 0.00 0.38 0.11 74 1020.7
20260905193212 60 256 6.1 11.3 0.00 0.35 0.11 74 1020.9
20260905193204 60 296 6.1 11.3 0.00 0.38 0.11 74 1020.6
20260905192705 60 289 5.2 10.4 0.00 0.38 0.11 74 1020.6
20260905192212 60 263 6.1 11.3 0.00 0.35 0.11 74 1020.9
20260905192204 60 283 6.1 12.2 0.00 0.38 0.11 74 1020.6
20260905191704 60 281 4.3 10.4 0.00 0.38 0.11 74 1020.6
20260905190704 60 284 5.2 11.3 0.00 0.39 0.11 74 1020.6
20260905190212 60 324 6.1 11.3 0.00 0.35 0.11 75 1020.7
20260905190204 60 289 5.2 11.3 0.00 0.39 0.11 75 1020.5
20260905185704 60 290 5.2 10.4 0.00 0.39 0.11 75 1020.5
20260905185212 60 344 7.0 13.9 0.01 0.39 0.11 75 1020.6
20260905185204 60 277 7.0 13.9 0.01 0.39 0.11 75 1020.4
20260905184703 60 251 6.1 17.4 0.01 0.39 0.11 76 1020.4
20260905183704 60 281 10.4 17.4 0.01 0.39 0.11 76 1020.3
20260905183212 60 271 7.8 16.5 0.01 0.39 0.11 77 1020.5
20260905183203 60 297 7.0 15.6 0.01 0.39 0.11 77 1020.3
20260905182704 60 262 5.2 12.2 0.01 0.39 0.11 78 1020.3
20260905181703 60 272 4.3 11.3 0.01 0.39 0.11 78 1020.2
20260905181212 60 271 4.3 10.4 0.01 0.39 0.11 78 1020.3
20260905181204 60 301 4.3 10.4 0.01 0.39 0.11 78 1020.2
20260905180704 60 292 4.3 10.4 0.01 0.39 0.11 77 1019.9
20260905175212 61 272 6.1 10.4 0.00 0.39 0.10 75 1020.1
20260905175204 61 299 5.2 10.4 0.00 0.39 0.10 74 1020.0
20260905174704 62 302 5.2 10.4 0.00 0.39 0.10 74 1019.7
20260905174212 62 322 3.5 6.1 0.00 0.39 0.10 73 1019.7
20260905174205 62 285 3.5 6.1 0.00 0.39 0.10 73 1019.5
20260905173704 63 308 4.3 7.8 0.00 0.39 0.10 71 1019.6
20260905173212 63 337 7.0 11.3 0.00 0.39 0.10 68 1019.7
20260905173204 63 309 7.0 11.3 0.00 0.39 0.10 68 1019.5
20260905172703 64 301 6.1 12.2 0.00 0.39 0.10 66 1019.3
20260905172212 64 329 6.1 9.6 0.00 0.39 0.10 64 1019.3
20260905172204 64 294 6.1 10.4 0.00 0.39 0.10 64 1019.1
20260905171704 65 327 8.7 13.9 0.00 0.39 0.10 61 1019.2
20260905171212 65 292 9.6 13.0 0.00 0.39 0.10 59 1019.3
20260905171204 65 283 8.7 13.0 0.00 0.39 0.10 59 1019.0
20260905170704 65 302 7.8 14.8 0.00 0.40 0.10 59 1018.9
20260905170211 66 336 8.7 16.5 0.00 0.39 0.10 58 1018.9
20260905170203 66 275 6.1 12.2 0.00 0.42 0.10 59 1018.6
20260905165703 66 266 8.7 17.4 0.00 0.42 0.10 59 1018.5
20260905165211 66 230 5.2 11.3 0.00 0.42 0.10 59 1018.7
20260905165205 66 260 6.1 11.3 0.00 0.42 0.10 59 1018.4
20260905164706 66 311 4.3 11.3 0.00 0.42 0.10 58 1018.3
20260905164211 66 248 8.7 16.5 0.00 0.42 0.10 58 1018.6
20260905164206 66 275 10.4 17.4 0.00 0.42 0.10 58 1018.3
20260905163706 66 273 5.2 10.4 0.00 0.42 0.10 58 1018.2
20260905163212 66 307 5.2 13.0 0.00 0.42 0.10 57 1018.4
20260905163206 66 260 5.2 10.4 0.00 0.42 0.10 57 1018.1
20260905162705 66 259 7.8 14.8 0.00 0.42 0.10 56 1018.1
20260905162211 67 248 7.8 13.9 0.00 0.42 0.10 56 1018.2
20260905162205 67 263 6.1 13.9 0.00 0.42 0.10 56 1017.9
20260905161706 67 297 6.1 17.4 0.00 0.42 0.10 55 1017.8
20260905161211 67 274 8.7 16.5 0.00 0.42 0.10 55 1018.0
20260905161205 67 267 7.8 17.4 0.00 0.42 0.10 56 1017.8
20260905160706 67 289 5.2 12.2 0.00 0.42 0.10 55 1017.7
20260905160211 68 243 2.6 12.2 0.00 0.42 0.10 55 1018.0
20260905160205 68 266 2.6 10.4 0.00 0.42 0.10 55 1017.6
20260905155705 68 272 6.1 12.2 0.00 0.42 0.10 55 1017.6
20260905155212 68 288 5.2 18.2 0.00 0.42 0.10 54 1017.9
20260905155205 68 255 5.2 18.2 0.00 0.42 0.10 54 1017.6
20260905154706 68 255 7.8 18.2 0.00 0.42 0.10 54 1017.5
20260905154211 68 260 8.7 16.5 0.00 0.42 0.10 55 1018.0
20260905154205 68 293 8.7 17.4 0.00 0.42 0.10 55 1017.6
20260905153705 67 258 6.1 15.6 0.00 0.42 0.10 55 1017.5
20260905152705 67 261 9.6 17.4 0.00 0.42 0.10 54 1017.5
20260905151705 67 249 6.1 15.6 0.00 0.42 0.10 55 1017.4
20260905151211 68 342 5.2 17.4 0.00 0.42 0.10 55 1017.8
20260905151205 68 269 7.0 17.4 0.00 0.42 0.10 55 1017.4
20260905150706 68 260 7.0 18.2 0.00 0.42 0.10 54 1017.3
20260905145706 68 259 5.2 12.2 0.00 0.42 0.10 56 1017.2
20260905145211 67 254 6.1 17.4 0.00 0.42 0.10 55 1017.7
20260905145205 67 263 7.8 14.8 0.00 0.42 0.10 55 1017.2
20260905144705 67 278 5.2 14.8 0.00 0.42 0.10 56 1017.3
20260905144211 67 309 7.0 15.6 0.00 0.42 0.10 56 1017.8
20260905144205 67 263 7.8 15.6 0.00 0.42 0.10 56 1017.4
20260905143705 68 291 7.0 12.2 0.00 0.42 0.10 56 1017.4
20260905143211 68 255 6.1 12.2 0.00 0.42 0.10 54 1017.8
20260905143205 68 264 6.1 12.2 0.00 0.42 0.10 54 1017.4
20260905142706 68 246 5.2 17.4 0.00 0.42 0.10 54 1017.4
20260905141705 69 235 6.1 13.0 0.00 0.42 0.10 54 1017.3
20260905141211 69 294 7.0 18.2 0.00 0.42 0.10 53 1017.8
20260905141206 69 285 7.8 18.2 0.00 0.42 0.10 53 1017.4
20260905140706 68 252 7.0 17.4 0.00 0.42 0.10 53 1017.4
20260905140211 68 275 7.8 17.4 0.00 0.42 0.10 53 1017.9
20260905140206 68 280 7.0 17.4 0.00 0.42 0.10 53 1017.4
20260905135211 68 232 9.6 16.5 0.00 0.42 0.10 52 1017.6
20260905135205 68 228 9.6 17.4 0.00 0.42 0.10 53 1017.3
20260905134705 68 285 7.0 17.4 0.00 0.42 0.10 54 1017.3
20260905134211 68 267 4.3 14.8 0.00 0.42 0.10 54 1017.7
20260905134205 68 244 5.2 14.8 0.00 0.42 0.10 54 1017.3
20260905133705 69 248 7.8 14.8 0.00 0.42 0.10 55 1017.3
20260905133211 69 248 4.3 14.8 0.00 0.42 0.10 55 1017.8
20260905133205 68 236 4.3 14.8 0.00 0.42 0.10 55 1017.2
20260905132705 68 227 5.2 14.8 0.00 0.42 0.10 56 1017.2
20260905132211 68 202 7.0 17.4 0.00 0.42 0.10 55 1017.6
20260905132206 68 230 6.1 17.4 0.00 0.42 0.10 55 1017.1
20260905131706 68 254 7.0 17.4 0.00 0.42 0.10 56 1017.2
20260905131211 67 313 6.1 17.4 0.00 0.42 0.10 58 1017.7
20260905131205 67 255 5.2 17.4 0.00 0.42 0.10 58 1017.3
20260905130705 67 223 6.1 14.8 0.00 0.42 0.10 58 1017.2
20260905130211 68 243 7.0 12.2 0.00 0.42 0.10 57 1017.7
20260905130205 68 252 6.1 12.2 0.00 0.42 0.10 57 1017.2
20260905125705 68 232 6.1 12.2 0.00 0.42 0.10 56 1017.2
20260905125211 68 165 4.3 14.8 0.00 0.42 0.10 56 1017.6
20260905125205 68 236 5.2 13.0 0.00 0.42 0.10 57 1017.2
20260905124211 68 277 7.0 15.6 0.00 0.42 0.10 56 1017.5
20260905124206 68 259 6.1 15.6 0.00 0.42 0.10 56 1017.1
20260905123705 68 284 5.2 13.0 0.00 0.42 0.10 58 1017.1
20260905123217 67 169 5.2 12.2 0.00 0.42 0.10 58 1017.5
20260905123205 67 278 5.2 12.2 0.00 0.42 0.10 58 1017.1
20260905122705 67 245 5.2 13.0 0.00 0.42 0.10 59 1017.1
20260905122211 67 225 7.0 17.4 0.00 0.42 0.10 58 1017.6
20260905122205 67 253 7.0 17.4 0.00 0.42 0.10 58 1017.2
20260905121706 67 267 6.1 18.2 0.00 0.42 0.10 59 1017.3
20260905121211 66 233 7.8 18.2 0.00 0.42 0.10 60 1017.8
20260905121205 66 232 5.2 18.2 0.00 0.42 0.10 60 1017.4
20260905120704 66 299 6.1 13.0 0.00 0.42 0.10 60 1017.3
20260905120211 66 256 7.0 15.6 0.00 0.42 0.10 59 1017.8
20260905120205 66 257 6.1 14.8 0.00 0.42 0.10 59 1017.4
20260905115705 66 260 6.1 17.4 0.00 0.42 0.10 58 1017.3
20260905115211 66 242 7.0 14.8 0.00 0.42 0.10 58 1017.8
20260905115205 66 236 6.1 14.8 0.00 0.42 0.10 59 1017.4
20260905114705 66 239 4.3 19.1 0.00 0.42 0.10 59 1017.2
20260905114211 66 228 5.2 14.8 0.00 0.42 0.10 61 1017.9
20260905114205 66 255 6.1 14.8 0.00 0.42 0.10 61 1017.4
20260905113705 66 242 8.7 18.2 0.00 0.42 0.10 60 1017.4
20260905113211 66 275 5.2 20.9 0.00 0.42 0.10 60 1018.0
20260905113205 66 249 6.1 13.9 0.00 0.42 0.10 60 1017.6
20260905112705 66 229 8.7 20.9 0.00 0.42 0.10 59 1017.6
20260905112211 66 188 5.2 15.6 0.00 0.42 0.10 61 1017.9
20260905112205 66 261 6.1 15.6 0.00 0.42 0.10 61 1017.5
20260905111705 66 224 5.2 15.6 0.00 0.42 0.10 62 1017.4
20260905111211 66 309 6.1 19.1 0.00 0.42 0.10 62 1018.0
20260905111205 66 263 7.0 19.1 0.00 0.42 0.10 62 1017.6
20260905110705 66 247 6.1 17.4 0.00 0.42 0.10 62 1017.7
20260905110211 65 212 7.0 15.6 0.00 0.42 0.10 63 1017.9
20260905110205 65 262 6.1 15.6 0.00 0.42 0.10 63 1017.5
20260905105705 65 262 5.2 11.3 0.00 0.42 0.10 65 1017.6
20260905105211 65 232 7.0 17.4 0.00 0.42 0.10 64 1018.0
20260905105205 65 256 7.8 15.6 0.00 0.42 0.10 64 1017.6
20260905104705 65 278 4.3 12.2 0.00 0.42 0.10 64 1017.6
20260905103705 66 218 6.1 18.2 0.00 0.42 0.10 64 1017.5
20260905103211 65 250 6.1 15.6 0.00 0.42 0.10 65 1018.0
20260905103206 65 269 5.2 15.6 0.00 0.42 0.10 65 1017.6
20260905101706 65 205 7.0 14.8 0.00 0.42 0.10 65 1017.5
20260905101211 65 281 6.1 12.2 0.00 0.42 0.10 66 1017.8
20260905101205 65 250 6.1 12.2 0.00 0.42 0.10 66 1017.4
20260905100705 64 252 4.3 13.0 0.00 0.42 0.10 66 1017.3
20260905095705 64 239 6.1 17.4 0.00 0.42 0.10 65 1017.3
20260905095211 64 224 8.7 16.5 0.00 0.42 0.10 66 1017.7
20260905095205 64 263 8.7 17.4 0.00 0.42 0.10 66 1017.3
20260905094705 64 258 7.0 14.8 0.00 0.42 0.10 68 1017.2
20260905094211 64 273 7.0 12.2 0.00 0.42 0.10 67 1017.6
20260905094205 64 237 7.0 12.2 0.00 0.42 0.10 67 1017.2
20260905093706 65 261 7.0 13.0 0.00 0.42 0.10 67 1017.2
20260905093211 65 247 5.2 13.9 0.00 0.42 0.10 67 1017.6
20260905093204 65 250 5.2 13.9 0.00 0.42 0.10 67 1017.1
20260905092211 65 200 6.1 14.8 0.00 0.42 0.10 66 1017.5
20260905092205 65 233 5.2 17.4 0.00 0.42 0.10 66 1017.1
20260905091705 65 223 7.0 17.4 0.00 0.42 0.10 66 1017.0
20260905091211 65 190 6.1 12.2 0.00 0.42 0.10 68 1017.5
20260905091205 64 242 5.2 12.2 0.00 0.42 0.10 68 1017.1
20260905090705 64 272 6.1 11.3 0.00 0.42 0.10 69 1017.1
20260905090211 64 204 4.3 11.3 0.00 0.42 0.10 70 1017.3
20260905090205 64 224 3.5 11.3 0.00 0.42 0.10 70 1017.0
20260905085211 63 248 6.1 13.0 0.00 0.42 0.10 70 1017.3
20260905085205 63 229 5.2 12.2 0.00 0.42 0.10 71 1017.0
20260905084705 63 225 5.2 15.6 0.00 0.42 0.10 71 1017.0
20260905084211 63 209 7.0 14.8 0.00 0.42 0.10 71 1017.2
20260905084205 63 228 7.8 14.8 0.00 0.43 0.10 71 1016.9
20260905083705 63 261 6.1 15.6 0.00 0.43 0.10 72 1016.9
20260905083211 63 212 7.0 16.5 0.00 0.42 0.10 72 1017.2
20260905083205 63 257 7.8 17.4 0.00 0.43 0.10 72 1016.9
20260905082705 63 291 5.2 17.4 0.00 0.43 0.10 74 1016.8
20260905082211 63 288 4.3 13.0 0.00 0.42 0.10 75 1017.1
20260905082205 63 236 4.3 13.0 0.00 0.43 0.10 75 1016.9
20260905081211 62 316 7.8 18.2 0.00 0.42 0.10 76 1017.0
20260905081204 62 262 6.1 18.2 0.00 0.43 0.10 77 1016.7
20260905080705 62 226 3.5 12.2 0.00 0.43 0.10 78 1016.8
20260905080211 62 251 7.8 15.6 0.00 0.42 0.10 77 1017.0
20260905080205 62 266 7.8 15.6 0.00 0.43 0.10 77 1016.7
20260905075706 62 272 5.2 10.4 0.00 0.43 0.10 78 1016.6
20260905075211 62 233 3.5 14.8 0.00 0.43 0.10 79 1017.0
20260905075204 62 201 3.5 14.8 0.00 0.43 0.10 79 1016.6
20260905074211 62 236 6.1 15.6 0.00 0.43 0.10 79 1016.8
20260905074206 62 244 7.0 15.6 0.00 0.43 0.10 79 1016.5
20260905073705 62 229 6.1 17.4 0.00 0.43 0.10 79 1016.4
20260905072704 62 223 5.2 15.6 0.00 0.43 0.10 81 1016.4
20260905072211 62 203 6.1 11.3 0.00 0.43 0.10 81 1016.8
20260905072205 62 227 5.2 10.4 0.00 0.43 0.10 81 1016.4
20260905071705 61 207 5.2 11.3 0.00 0.43 0.10 81 1016.4
20260905071211 61 196 3.5 10.4 0.00 0.43 0.10 82 1016.8
20260905071205 61 233 4.3 7.8 0.00 0.43 0.10 82 1016.4
20260905070705 61 253 5.2 12.2 0.00 0.43 0.10 83 1016.3
20260905070211 61 157 2.6 13.0 0.00 0.43 0.10 83 1016.7
20260905070205 61 232 2.6 13.0 0.00 0.43 0.10 83 1016.3
20260905065705 61 241 5.2 11.3 0.00 0.43 0.10 84 1016.3
20260905065211 60 192 3.5 12.2 0.00 0.43 0.10 84 1016.6
20260905065205 61 227 4.3 12.2 0.00 0.43 0.10 84 1016.3
20260905064705 60 239 1.7 8.7 0.00 0.43 0.10 85 1016.2
20260905064211 60 215 6.1 13.0 0.00 0.43 0.10 85 1016.5
20260905064205 60 249 6.1 13.0 0.00 0.43 0.10 85 1016.2
20260905063705 60 240 2.6 7.8 0.00 0.43 0.10 86 1016.1
20260905062704 60 245 2.6 7.0 0.00 0.43 0.10 88 1016.1
20260905062211 60 239 4.3 12.2 0.00 0.43 0.10 88 1016.4
20260905062205 60 250 4.3 12.2 0.00 0.43 0.10 88 1016.0
20260905061704 59 244 2.6 7.0 0.00 0.43 0.10 89 1016.0
20260905061210 59 238 2.6 10.4 0.00 0.43 0.10 89 1016.3
20260905061205 59 276 3.5 10.4 0.00 0.43 0.10 89 1016.1
20260905060705 59 250 2.6 6.1 0.00 0.43 0.10 90 1016.0
20260905060211 59 16 4.3 13.0 0.00 0.43 0.10 90 1016.2
20260905060205 59 250 1.7 13.0 0.00 0.43 0.10 90 1015.9
20260905055705 59 248 2.6 7.0 0.00 0.43 0.10 91 1015.9
20260905055211 58 234 2.6 12.2 0.00 0.43 0.10 91 1016.2
20260905055205 58 247 2.6 8.7 0.00 0.43 0.10 91 1015.8
20260905054705 58 270 3.5 12.2 0.00 0.43 0.10 91 1015.8
20260905054210 58 244 1.7 7.8 0.00 0.43 0.10 91 1015.9
20260905054205 58 204 1.7 7.8 0.00 0.43 0.10 91 1015.7
20260905053705 58 270 2.6 6.1 0.00 0.43 0.10 91 1015.7
20260905053211 58 277 2.6 7.0 0.00 0.43 0.10 92 1016.0
20260905053205 58 246 2.6 7.0 0.00 0.43 0.10 92 1015.7
20260905052705 57 299 3.5 6.1 0.00 0.43 0.10 92 1015.6
20260905051705 57 245 1.7 2.6 0.00 0.43 0.10 92 1015.4
20260905051210 57 267 1.7 5.2 0.00 0.43 0.10 91 1015.8
20260905051204 57 267 2.6 5.2 0.00 0.43 0.10 91 1015.3
20260905045704 56 263 0.9 2.6 0.00 0.43 0.10 91 1015.2
20260905043704 57 281 2.6 4.3 0.00 0.43 0.10 90 1014.9
20260905043210 57 238 2.6 4.3 0.01 0.43 0.10 91 1015.6
20260905043204 57 238 2.6 4.3 0.01 0.43 0.10 91 1015.0
20260905042705 57 225 0.9 7.0 0.01 0.43 0.10 91 1014.9
20260905042211 58 245 1.7 8.7 0.01 0.43 0.10 90 1015.7
20260905042205 58 259 0.9 6.1 0.01 0.43 0.10 90 1014.9
20260905041211 58 243 1.7 7.0 0.01 0.43 0.10 91 1015.6
20260905041205 58 264 0.9 7.0 0.01 0.43 0.10 91 1014.8
20260905040705 58 253 2.6 8.7 0.01 0.43 0.10 90 1014.6
20260905035705 58 254 3.5 8.7 0.01 0.43 0.10 90 1014.4
20260905035210 58 286 3.5 10.4 0.01 0.43 0.10 90 1015.2
20260905035205 59 257 4.3 10.4 0.01 0.43 0.10 90 1014.4
20260905034704 59 264 2.6 8.7 0.01 0.43 0.10 90 1014.4
20260905034210 59 247 4.3 12.2 0.01 0.43 0.10 90 1015.1
20260905034205 59 284 5.2 12.2 0.01 0.43 0.10 90 1014.3
20260905033704 59 207 5.2 15.6 0.01 0.43 0.10 91 1014.2
20260905033210 59 234 4.3 9.6 0.00 0.42 0.09 90 1014.8
20260905033205 59 246 4.3 10.4 0.00 0.42 0.09 90 1014.0
20260905032705 59 268 3.5 7.0 0.00 0.42 0.09 91 1014.0
20260905032210 59 306 6.1 12.2 0.00 0.42 0.09 91 1014.8
20260905032204 59 288 5.2 12.2 0.00 0.42 0.09 91 1014.0
20260905031705 59 277 3.5 7.0 0.00 0.42 0.09 91 1014.0
20260905031210 59 350 1.7 8.7 0.00 0.42 0.09 91 1014.8
20260905031204 59 285 2.6 6.1 0.00 0.42 0.09 91 1014.0
20260905030704 59 266 2.6 8.7 0.00 0.42 0.09 91 1014.0
20260905030210 59 294 1.7 7.0 0.00 0.42 0.09 91 1014.7
20260905030204 59 266 1.7 5.2 0.00 0.42 0.09 91 1013.9
20260905025704 59 220 3.5 8.7 0.00 0.42 0.09 91 1013.9
20260905025210 59 255 2.6 9.6 0.00 0.42 0.09 91 1014.7
20260905025205 59 267 3.5 10.4 0.00 0.42 0.09 91 1013.9
20260905024704 59 232 2.6 7.8 0.00 0.42 0.09 91 1013.9
20260905024210 59 247 4.3 9.6 0.00 0.42 0.09 91 1014.7
20260905024205 59 251 3.5 10.4 0.00 0.42 0.09 91 1013.8